Overview Statistics Trail Chart Weather Telemetry Raw packets
 

This is the latest recevied weather packets stored in our database for station/object K7CTM. If no packets are shown the sender has not sent any weather packets the latest 10 day(s).

<< 10 11 12 13 14 15 16 >>
Time Temp. Humidity Pressure Rain* Wind** Luminosity Snow
1788542872 28.89° C 26% 1020 hPa 0 mm - 651 W/m² -
1788542570 27.78° C 27% 1020 hPa 0 mm - 643 W/m² -
1788542266 27.22° C 28% 1019.8 hPa 0 mm - 632 W/m² -
1788541961 26.67° C 30% 1020 hPa 0 mm - 619 W/m² -
1788541657 26.67° C 31% 1020 hPa 0 mm - 610 W/m² -
1788541353 26.67° C 29% 1020.2 hPa 0 mm - 600 W/m² -
1788541052 26.67° C 29% 1020.2 hPa 0 mm - 588 W/m² -
1788540747 25.56° C 29% 1020.2 hPa 0 mm - 578 W/m² -
1788540446 25.56° C 29% 1020.2 hPa 0 mm - 568 W/m² -
1788540141 25° C 29% 1020.2 hPa 0 mm - 557 W/m² -
1788539838 24.44° C 30% 1020 hPa 0 mm - 546 W/m² -
1788539533 23.33° C 31% 1020 hPa 0 mm - 533 W/m² -
1788539232 22.78° C 33% 1020 hPa 0 mm - 522 W/m² -
1788538927 22.22° C 33% 1020 hPa 0 mm - 509 W/m² -
1788538622 22.22° C 32% 1019.9 hPa 0 mm - 494 W/m² -
1788538317 21.67° C 33% 1019.8 hPa 0 mm - 478 W/m² -
1788538013 21.67° C 32% 1019.8 hPa 0 mm - 459 W/m² -
1788537708 22.22° C 32% 1019.9 hPa 0 mm - 450 W/m² -
1788537404 22.22° C 31% 1020 hPa 0 mm - 433 W/m² -
1788537103 22.78° C 31% 1019.8 hPa 0 mm - 421 W/m² -
1788536802 21.11° C 31% 1020.3 hPa 0 mm - 404 W/m² -
1788536502 20.56° C 33% 1020.3 hPa 0 mm - 387 W/m² -
1788536198 19.44° C 34% 1020.3 hPa 0 mm - 370 W/m² -
1788535898 18.89° C 36% 1020.3 hPa 0 mm - 325 W/m² -
1788535595 17.22° C 39% 1020.3 hPa 0 mm - 339 W/m² -

* Rain latest hour (hover to see other rain measurements)
** Current wind speed in m/s (hover to see current wind gust speed)